[Iaude] MPEC K127: 2024 KY [a=1.18,e=0.19,i=10.5,H=26.3]

mpec at cfa.harvard.edu mpec at cfa.harvard.edu
Wed May 29 19:37:39 EDT 2024


M.P.E.C. 2024-K127                                 Issued 2024 May 29, 23:36 UT

     The Minor Planet Electronic Circulars contain information on unusual
         minor planets, routine data on comets and natural satellites,
         and occasional editorial announcements.  They are published
    on behalf of Division F of the International Astronomical Union by the
          Minor Planet Center, Smithsonian Astrophysical Observatory,
                          Cambridge, MA 02138, U.S.A.
			  
             Prepared using the Tamkin Foundation Computer Network

                              MPC at CFA.HARVARD.EDU
            URL https://www.minorplanetcenter.net/    ISSN 1523-6714

                                    2024 KY                                     


Observations:
     K24K00Y 1C2024 05 28.15989 11 09 04.47 +48 56 52.6                VEK127G96
     K24K00Y 1C2024 05 28.16535 11 09 10.49 +48 53 28.1                VEK127G96
     K24K00Y*1C2024 05 29.14773211 32 26.041+36 21 17.96         20.59GVEK127G96
     K24K00Y 1C2024 05 29.15349811 32 32.428+36 15 46.15         20.19GVEK127G96
     K24K00Y 1C2024 05 29.15924911 32 38.789+36 10 15.89         20.37GVEK127G96
     K24K00Y 1C2024 05 29.16499011 32 45.200+36 04 40.91         20.10GVEK127G96
     K24K00Y KC2024 05 29.20361211 33 29.099+35 26 48.12         19.79GVEK127I52
     K24K00Y KC2024 05 29.20435011 33 29.912+35 26 04.09         19.99GVEK127I52
     K24K00Y KC2024 05 29.20508611 33 30.762+35 25 20.46         19.60GVEK127I52
     K24K00Y KC2024 05 29.20581811 33 31.619+35 24 36.90         20.13GVEK127I52
     K24K00Y  C2024 05 29.23649011 34 06.329+34 53 17.91         19.1 GVEK127H01
     K24K00Y  C2024 05 29.24007811 34 10.692+34 49 39.87         19.2 GVEK127H01
     K24K00Y  C2024 05 29.24850111 34 21.055+34 41 06.95         19.0 GVEK127H01
     K24K00Y  C2024 05 29.25779911 34 32.637+34 31 38.02         19.1 GVEK127H01
     K24K00Y KC2024 05 29.31396911 35 45.661+33 34 02.82         20.39GVEK127I52
     K24K00Y KC2024 05 29.31470611 35 46.684+33 33 16.92         19.66GVEK127I52
     K24K00Y KC2024 05 29.31544411 35 47.663+33 32 30.73         20.14GVEK127I52
     K24K00Y KC2024 05 29.31617311 35 48.602+33 31 44.51         19.21GVEK127I52
     K24K00Y KB2024 05 29.49726811 40 32.776+30 24 13.51         18.5 GXEK127Q06
     K24K00Y KB2024 05 29.50133911 40 37.455+30 19 44.23         18.4 GXEK127Q06
     K24K00Y KB2024 05 29.50538111 40 42.071+30 15 14.90         18.0 GXEK127Q06
     K24K00Y KB2024 05 29.88195 11 49 32.14 +22 50 55.9                ZEK127106
     K24K00Y KB2024 05 29.88659 11 49 37.75 +22 45 02.8          18.4 RZEK127106
     K24K00Y KB2024 05 29.89123 11 49 43.43 +22 39 10.5          18.6 RZEK127106
     K24K00Y KB2024 05 29.89588 11 49 49.13 +22 33 17.3          18.0 RZEK127106
     K24K00Y KC2024 05 29.94329 11 50 48.94 +21 33 09.1          18.2 GVEK127104
     K24K00Y KC2024 05 29.94961 11 50 56.95 +21 25 00.0          18.2 GVEK127104

Observer details:
104 San Marcello Pistoiese.  Observers P. Bacci, M. Maestripieri.  Measurer P.
    Bacci.  0.60-m f/4.0 reflector + CCD.
106 Crni Vrh.  Observer H. Mikuz.  0.60-m f/3.3 reflector + CMO.
G96 Mt. Lemmon Survey.  Observers K. W. Wierzchos, T. Beuden.  Measurers B.
    Gray, D. Rankin, F. C. Shelly, T. Beuden, V. F. Carvajal, D. Fay, J. B.
    Fazekas, D. C. Fuls, A. R. Gibbs, A. D. Grauer, H. Groeller, J. K. Hogan,
    R. A. Kowalski, S. M. Larson, G. J. Leonard, R. L. Seaman, K. W.
    Wierzchos.  1.5-m reflector + 10K CCD.
H01 Magdalena Ridge Observatory, Socorro.  Observers W. H. Ryan, E. V. Ryan.
    Measurer W. H. Ryan.  2.4-m f/8.9 Ritchey-Chretien + CCD.
I52 Steward Observatory, Mt. Lemmon Station.  Observer V. F. Carvajal.
    Measurers T. Beuden, V. F. Carvajal, D. Fay, J. B. Fazekas, D. C. Fuls, A.
    R. Gibbs, A. D. Grauer, H. Groeller, J. K. Hogan, R. A. Kowalski, S. M.
    Larson, G. J. Leonard, D. Rankin, R. L. Seaman, F. C. Shelly, K. W.
    Wierzchos.  1.0-m prime focus + CCD.
Q06 Tarui Observatory, Tarui.  Observer H. Watanabe.  0.35-m f/1.9 Schmidt-
    Cassegrain + CMO.

Orbital elements:
2024 KY                                                  Earth MOID = 0.0033 AU
Epoch 2024 Mar. 31.0 TT = JDT 2460400.5                 MPC                     
M 348.59209              (2000.0)            P               Q                  
n   0.76529626     Peri.  129.29560     -0.93614726     +0.30763158             
a   1.1837218      Node    69.21823     -0.35160620     -0.82067298             
e   0.1905531      Incl.   10.49306     +0.00117389     -0.48151705             
P   1.29           H   26.35          G   0.15           U   7                  
Residuals in seconds of arc
240528 G96  0.2+  0.0     240529 I52  0.1-  0.1+    240529 Q06  0.2-  0.4-
240528 G96  0.2-  0.1+    240529 H01  0.2+  0.1-    240529 Q06  0.2+  1.0+
240529 G96 (0.9-  3.2+)   240529 H01  0.0   0.3-    240529 Q06  0.1+  1.0+
240529 G96 (0.8-  3.1+)   240529 H01  0.0   0.0     240529 106  0.2-  0.2-
240529 G96 (1.1-  4.9+)   240529 H01  0.0   0.2+    240529 106  0.8-  1.3-
240529 G96 (0.9-  2.7+)   240529 I52  0.5-  0.3-    240529 106  0.6-  0.9-
240529 I52  0.3+  0.1+    240529 I52  0.0   0.2+    240529 106  0.7-  0.1-
240529 I52  0.2-  0.1-    240529 I52  0.1-  0.5+    240529 104  0.8+  0.2-
240529 I52  0.2-  0.1+    240529 I52  0.6-  0.2+    240529 104  0.4-  0.4+

Ephemeris:
2024 KY                  a,e,i = 1.18, 0.19, 10                  q = 0.9582
Date    TT    R. A. (2000) Decl.     Delta      r    Elong.  Phase     V
2024 04 29    06 04 26.8 +74 27 29   0.1282  0.9642    67.0   105.9    25.7
...
2024 05 14    07 31 45.2 +75 02 26   0.06950 0.9832    65.0   111.4    24.8
...
2024 05 22    09 05 29.7 +71 36 41   0.03748 0.9981    66.8   111.3    23.5
...
2024 05 28    11 05 42.0 +50 28 21   0.01501 1.0110    80.5    98.6    20.8
2024 05 29    11 29 10.2 +38 36 19   0.01212 1.0133    88.5    90.8    20.0
2024 05 30    11 52 46.5 +20 29 12   0.01013 1.0156   100.6    78.8    19.2
...
2024 06 05    13 57 36.1 -61 01 24   0.02352 1.0303   131.2    47.8    20.1
...
2024 06 13    15 33 07.8 -71 31 34   0.05550 1.0514   129.1    48.6    22.0
...
2024 06 28    16 46 37.9 -72 05 00   0.1181  1.0949   129.1    46.1    23.7

A. U. Tomatic                (C) Copyright 2024 MPC           M.P.E.C. 2024-K127





More information about the Iaude mailing list